HERMES Pathfinder H2

operational
NORAD ID: 63243 Int'l Des: 2025-052 Owner: ASI Country: I
LEOCIRCULARRETROGRADESSO

关于 HERMES Pathfinder H2

正在加载描述...

实时位置

正在加载3D地球...

即将过境

高度历史

Altitude vs Time

uPlot chart will show altitude changes over time

两行轨道根数

1 63243U 25052AK 25278.17122041 .00018970 00000-0 83197-3 0 9990
2 63243 97.4131 170.3194 0003541 304.5771 55.5131 15.22013980 31117
Epoch: Oct 5, 2025 • Age: 7 hours

当前状态

高度 512.1 km
速度 7.61 km/s
星下点 58.73°N, 175.71°W
发射日期 Mar 15, 2025
运行时间 0.5 years
类型 other

技术详情

分类 Payload
质量 5.00 kg
干质量 5.00 kg
总质量 5.00 kg
长度 0.30 m
直径 0.10 m
跨度 0.30 m
形状 Box
制造商 MILANP/INAFI
平台类型 Cubesat 3U
阶段状态 In Orbit
所有者/国家 ASI/I

大型星座

Loading constellations...